Time,TemperatureF,DewpointF,PressureIn,WindDirection,WindDirectionDegrees,WindSpeedMPH,WindSpeedGustMPH,Humidity,HourlyPrecipIn,Conditions,Clouds,dailyrainin,SoftwareType,DateUTC
2014-09-18 00:03:00,59.3,46.0,29.71,SW,223,0.0,-999.0,61,-99.99,,,0.00,weatherlink.com 1.10,2014-09-18 07:03:00,
2014-09-18 00:18:00,59.0,45.0,29.70,SW,223,0.0,-999.0,61,-99.99,,,0.00,weatherlink.com 1.10,2014-09-18 07:18:00,
2014-09-18 00:33:00,58.8,46.0,29.71,SW,223,0.0,-999.0,62,-99.99,,,0.00,weatherlink.com 1.10,2014-09-18 07:33:00,
2014-09-18 00:48:00,59.2,46.0,29.71,SW,223,0.0,-999.0,62,-99.99,,,0.00,weatherlink.com 1.10,2014-09-18 07:48:00,
2014-09-18 01:03:00,60.0,47.0,29.71,SW,223,0.0,-999.0,63,-99.99,,,0.00,weatherlink.com 1.10,2014-09-18 08:03:00,
2014-09-18 01:18:00,60.2,47.0,29.71,SW,223,0.0,-999.0,62,-99.99,,,0.00,weatherlink.com 1.10,2014-09-18 08:18:00,
2014-09-18 01:33:00,60.0,48.0,29.71,SW,223,0.0,-999.0,64,-99.99,,,0.00,weatherlink.com 1.10,2014-09-18 08:33:00,
2014-09-18 01:48:00,60.2,49.0,29.71,SW,223,0.0,-999.0,67,-99.99,,,0.00,weatherlink.com 1.10,2014-09-18 08:48:00,
2014-09-18 02:03:00,60.3,49.0,29.70,SW,223,0.0,-999.0,66,-99.99,,,0.00,weatherlink.com 1.10,2014-09-18 09:03:00,
2014-09-18 02:18:00,60.4,48.0,29.70,SW,223,0.0,-999.0,65,-99.99,,,0.00,weatherlink.com 1.10,2014-09-18 09:18:00,
2014-09-18 02:33:00,60.3,48.0,29.70,SW,223,0.0,-999.0,65,-99.99,,,0.00,weatherlink.com 1.10,2014-09-18 09:33:00,
2014-09-18 02:48:00,60.2,49.0,29.70,SW,223,0.0,-999.0,67,-99.99,,,0.00,weatherlink.com 1.10,2014-09-18 09:48:00,
2014-09-18 03:03:00,59.9,49.0,29.70,SW,223,0.0,-999.0,67,-99.99,,,0.00,weatherlink.com 1.10,2014-09-18 10:03:00,
2014-09-18 03:18:00,59.7,50.0,29.70,SW,223,0.0,-999.0,70,-99.99,,,0.00,weatherlink.com 1.10,2014-09-18 10:18:00,
2014-09-18 03:33:00,59.7,50.0,29.71,SW,223,0.0,-999.0,71,-99.99,,,0.00,weatherlink.com 1.10,2014-09-18 10:33:00,
2014-09-18 03:48:00,59.7,53.0,29.70,SW,229,0.0,-999.0,79,-99.99,,,0.00,weatherlink.com 1.10,2014-09-18 10:48:00,
2014-09-18 04:03:00,59.1,54.0,29.70,SW,229,0.0,-999.0,82,-99.99,,,0.00,weatherlink.com 1.10,2014-09-18 11:03:00,
2014-09-18 04:18:00,58.7,54.0,29.71,SW,229,0.0,-999.0,84,-99.99,,,0.00,weatherlink.com 1.10,2014-09-18 11:18:00,
2014-09-18 04:33:00,58.6,54.0,29.70,SW,229,0.0,-999.0,85,-99.99,,,0.00,weatherlink.com 1.10,2014-09-18 11:33:00,
2014-09-18 04:48:00,58.7,54.0,29.70,SW,229,0.0,-999.0,85,-99.99,,,0.00,weatherlink.com 1.10,2014-09-18 11:48:00,
2014-09-18 05:03:00,58.7,55.0,29.71,SW,229,0.0,-999.0,86,-99.99,,,0.00,weatherlink.com 1.10,2014-09-18 12:03:00,
2014-09-18 05:18:00,58.6,55.0,29.71,SW,229,0.0,-999.0,88,-99.99,,,0.00,weatherlink.com 1.10,2014-09-18 12:18:00,
2014-09-18 05:33:00,58.3,55.0,29.71,SW,229,0.0,-999.0,88,-99.99,,,0.00,weatherlink.com 1.10,2014-09-18 12:33:00,
2014-09-18 05:48:00,58.1,54.0,29.72,SW,229,0.0,-999.0,87,-99.99,,,0.00,weatherlink.com 1.10,2014-09-18 12:48:00,
2014-09-18 06:03:00,58.1,54.0,29.72,SW,229,0.0,-999.0,87,-99.99,,,0.00,weatherlink.com 1.10,2014-09-18 13:03:00,
2014-09-18 06:18:00,57.9,54.0,29.73,SW,229,0.0,-999.0,87,-99.99,,,0.00,weatherlink.com 1.10,2014-09-18 13:18:00,
2014-09-18 06:33:00,57.3,54.0,29.73,SW,229,0.0,-999.0,89,-99.99,,,0.00,weatherlink.com 1.10,2014-09-18 13:33:00,
2014-09-18 06:48:00,57.0,54.0,29.73,SW,228,0.0,-999.0,89,-99.99,,,0.00,weatherlink.com 1.10,2014-09-18 13:48:00,
2014-09-18 07:03:00,57.1,54.0,29.73,SW,229,0.0,-999.0,90,-99.99,,,0.00,weatherlink.com 1.10,2014-09-18 14:03:00,
2014-09-18 07:18:00,57.2,54.0,29.74,SW,229,0.0,-999.0,90,-99.99,,,0.00,weatherlink.com 1.10,2014-09-18 14:18:00,
2014-09-18 07:33:00,57.4,55.0,29.74,SW,229,0.0,-999.0,90,-99.99,,,0.00,weatherlink.com 1.10,2014-09-18 14:33:00,
2014-09-18 07:48:00,57.5,55.0,29.75,SW,229,0.0,-999.0,90,-99.99,,,0.00,weatherlink.com 1.10,2014-09-18 14:48:00,
2014-09-18 08:03:00,57.7,55.0,29.74,SW,229,0.0,-999.0,90,-99.99,,,0.00,weatherlink.com 1.10,2014-09-18 15:03:00,
2014-09-18 08:18:00,58.1,55.0,29.75,SW,228,0.0,-999.0,89,-99.99,,,0.00,weatherlink.com 1.10,2014-09-18 15:18:00,
2014-09-18 08:33:00,58.5,55.0,29.76,SW,229,0.0,-999.0,88,-99.99,,,0.00,weatherlink.com 1.10,2014-09-18 15:33:00,
2014-09-18 08:48:00,59.0,56.0,29.77,SW,229,0.0,-999.0,88,-99.99,,,0.00,weatherlink.com 1.10,2014-09-18 15:48:00,
2014-09-18 09:03:00,59.5,56.0,29.77,SW,229,0.0,-999.0,88,-99.99,,,0.00,weatherlink.com 1.10,2014-09-18 16:03:00,
2014-09-18 09:18:00,59.8,56.0,29.77,SW,229,0.0,-999.0,86,-99.99,,,0.00,weatherlink.com 1.10,2014-09-18 16:18:00,